Time,TemperatureF,DewpointF,PressureIn,WindDirection,WindDirectionDegrees,WindSpeedMPH,WindSpeedGustMPH,Humidity,HourlyPrecipIn,Conditions,Clouds,dailyrainin,SoftwareType,DateUTC
2013-01-08 00:01:00,27.9,24.0,30.36,West,274,2.0,0.0,84,0.00,,,0.00,oem by Ross Wheeler,2013-01-08 05:01:00,
2013-01-08 00:20:00,28.2,24.0,30.36,WSW,240,1.0,0.0,84,0.00,,,0.00,oem by Ross Wheeler,2013-01-08 05:20:00,
2013-01-08 00:25:00,28.3,24.0,30.36,WSW,240,1.0,0.0,84,0.00,,,0.00,oem by Ross Wheeler,2013-01-08 05:25:00,
2013-01-08 00:30:00,28.5,24.0,30.36,SW,233,2.0,0.0,84,0.00,,,0.00,oem by Ross Wheeler,2013-01-08 05:30:00,
2013-01-08 00:35:00,28.6,25.0,30.36,SW,233,2.0,0.0,85,0.00,,,0.00,oem by Ross Wheeler,2013-01-08 05:35:00,
2013-01-08 00:40:00,28.9,25.0,30.36,SW,230,0.0,0.0,85,0.00,,,0.00,oem by Ross Wheeler,2013-01-08 05:40:00,
2013-01-08 00:45:00,29.2,25.0,30.36,SW,233,1.0,0.0,85,0.00,,,0.00,oem by Ross Wheeler,2013-01-08 05:45:00,
2013-01-08 00:55:00,29.5,25.0,30.37,SW,233,0.0,0.0,84,0.00,,,0.00,oem by Ross Wheeler,2013-01-08 05:55:00,
2013-01-08 01:00:00,29.5,25.0,30.37,SW,233,0.0,0.0,84,0.00,,,0.00,oem by Ross Wheeler,2013-01-08 06:00:00,
2013-01-08 01:10:00,29.6,25.0,30.37,SW,233,0.0,0.0,84,0.00,,,0.00,oem by Ross Wheeler,2013-01-08 06:10:00,
2013-01-08 01:15:00,29.5,25.0,30.37,SW,233,0.0,0.0,84,0.00,,,0.00,oem by Ross Wheeler,2013-01-08 06:15:00,
2013-01-08 01:25:00,29.5,25.0,30.36,SW,233,0.0,0.0,84,0.00,,,0.00,oem by Ross Wheeler,2013-01-08 06:25:00,
2013-01-08 01:30:00,29.6,25.0,30.36,SW,233,3.0,0.0,84,0.00,,,0.00,oem by Ross Wheeler,2013-01-08 06:30:00,
2013-01-08 01:40:00,29.8,26.0,30.36,SW,231,2.0,0.0,85,0.00,,,0.00,oem by Ross Wheeler,2013-01-08 06:40:00,
2013-01-08 01:45:00,29.8,26.0,30.36,SW,224,1.0,0.0,85,0.00,,,0.00,oem by Ross Wheeler,2013-01-08 06:45:00,
2013-01-08 01:55:00,30.1,26.0,30.36,SW,231,2.0,0.0,85,0.00,,,0.00,oem by Ross Wheeler,2013-01-08 06:55:00,
2013-01-08 02:00:00,30.2,26.0,30.36,SW,233,1.0,0.0,85,0.00,,,0.00,oem by Ross Wheeler,2013-01-08 07:00:00,
2013-01-08 02:10:00,30.2,26.0,30.36,SW,233,1.0,0.0,85,0.00,,,0.00,oem by Ross Wheeler,2013-01-08 07:10:00,
2013-01-08 02:20:00,30.1,26.0,30.36,SW,233,0.0,0.0,84,0.00,,,0.00,oem by Ross Wheeler,2013-01-08 07:20:00,
2013-01-08 02:25:00,30.1,26.0,30.36,SW,233,0.0,0.0,84,0.00,,,0.00,oem by Ross Wheeler,2013-01-08 07:25:00,
2013-01-08 02:30:00,29.9,26.0,30.36,SW,233,0.0,0.0,84,0.00,,,0.00,oem by Ross Wheeler,2013-01-08 07:30:00,
2013-01-08 02:40:00,29.8,26.0,30.36,SW,233,0.0,0.0,84,0.00,,,0.00,oem by Ross Wheeler,2013-01-08 07:40:00,
2013-01-08 02:45:00,29.5,25.0,30.36,SW,233,0.0,0.0,84,0.00,,,0.00,oem by Ross Wheeler,2013-01-08 07:45:00,
2013-01-08 02:55:00,29.2,25.0,30.35,SW,233,0.0,0.0,84,0.00,,,0.00,oem by Ross Wheeler,2013-01-08 07:55:00,
2013-01-08 03:00:00,29.2,25.0,30.35,SW,233,0.0,0.0,84,0.00,,,0.00,oem by Ross Wheeler,2013-01-08 08:00:00,
2013-01-08 03:10:00,29.0,25.0,30.35,SW,233,1.0,0.0,84,0.00,,,0.00,oem by Ross Wheeler,2013-01-08 08:10:00,
2013-01-08 03:15:00,28.9,25.0,30.35,SW,233,0.0,0.0,84,0.00,,,0.00,oem by Ross Wheeler,2013-01-08 08:15:00,
2013-01-08 03:25:00,28.7,25.0,30.35,SW,233,0.0,0.0,84,0.00,,,0.00,oem by Ross Wheeler,2013-01-08 08:25:00,
2013-01-08 03:30:00,28.6,25.0,30.35,SW,233,1.0,0.0,85,0.00,,,0.00,oem by Ross Wheeler,2013-01-08 08:30:00,
2013-01-08 03:40:00,28.6,25.0,30.34,SW,224,1.0,0.0,86,0.00,,,0.00,oem by Ross Wheeler,2013-01-08 08:40:00,
2013-01-08 03:45:00,28.6,25.0,30.34,SW,222,0.0,0.0,86,0.00,,,0.00,oem by Ross Wheeler,2013-01-08 08:45:00,
2013-01-08 03:55:00,28.7,25.0,30.33,SW,219,0.0,0.0,86,0.00,,,0.00,oem by Ross Wheeler,2013-01-08 08:55:00,
2013-01-08 04:00:00,28.7,25.0,30.33,SW,219,0.0,0.0,85,0.00,,,0.00,oem by Ross Wheeler,2013-01-08 09:00:00,
2013-01-08 04:10:00,28.6,25.0,30.33,SW,219,0.0,0.0,85,0.00,,,0.00,oem by Ross Wheeler,2013-01-08 09:10:00,
2013-01-08 04:15:00,28.6,25.0,30.33,SW,219,0.0,0.0,85,0.00,,,0.00,oem by Ross Wheeler,2013-01-08 09:15:00,
2013-01-08 04:25:00,28.3,25.0,30.33,SW,219,0.0,0.0,86,0.00,,,0.00,oem by Ross Wheeler,2013-01-08 09:25:00,
2013-01-08 04:30:00,28.2,25.0,30.33,SW,219,0.0,0.0,86,0.00,,,0.00,oem by Ross Wheeler,2013-01-08 09:30:00,
2013-01-08 04:40:00,28.0,24.0,30.34,SW,219,0.0,0.0,86,0.00,,,0.00,oem by Ross Wheeler,2013-01-08 09:40:00,
2013-01-08 04:45:00,27.7,24.0,30.34,SW,219,0.0,0.0,86,0.00,,,0.00,oem by Ross Wheeler,2013-01-08 09:45:00,
2013-01-08 04:55:00,27.3,24.0,30.34,SW,219,0.0,0.0,86,0.00,,,0.00,oem by Ross Wheeler,2013-01-08 09:55:00,
2013-01-08 05:00:00,27.3,24.0,30.34,SW,224,0.0,0.0,87,0.00,,,0.00,oem by Ross Wheeler,2013-01-08 10:00:00,
2013-01-08 05:10:00,27.7,25.0,30.35,SW,231,1.0,0.0,88,0.00,,,0.00,oem by Ross Wheeler,2013-01-08 10:10:00,
2013-01-08 05:15:00,27.7,25.0,30.35,SW,231,0.0,0.0,88,0.00,,,0.00,oem by Ross Wheeler,2013-01-08 10:15:00,
2013-01-08 05:25:00,27.7,25.0,30.35,SW,231,0.0,0.0,88,0.00,,,0.00,oem by Ross Wheeler,2013-01-08 10:25:00,
2013-01-08 05:30:00,27.6,25.0,30.35,SW,231,0.0,0.0,88,0.00,,,0.00,oem by Ross Wheeler,2013-01-08 10:30:00,
2013-01-08 05:40:00,27.6,25.0,30.36,SW,231,1.0,0.0,88,0.00,,,0.00,oem by Ross Wheeler,2013-01-08 10:40:00,
2013-01-08 05:45:00,27.7,25.0,30.36,SW,231,0.0,0.0,88,0.00,,,0.00,oem by Ross Wheeler,2013-01-08 10:45:00,
2013-01-08 05:55:00,27.6,25.0,30.36,SW,231,0.0,0.0,88,0.00,,,0.00,oem by Ross Wheeler,2013-01-08 10:55:00,
2013-01-08 06:00:00,27.6,25.0,30.36,SW,231,0.0,0.0,88,0.00,,,0.00,oem by Ross Wheeler,2013-01-08 11:00:00,
2013-01-08 06:10:00,27.7,25.0,30.36,SW,231,0.0,0.0,88,0.00,,,0.00,oem by Ross Wheeler,2013-01-08 11:10:00,
2013-01-08 06:15:00,27.6,25.0,30.36,SW,231,0.0,0.0,88,0.00,,,0.00,oem by Ross Wheeler,2013-01-08 11:15:00,
2013-01-08 06:25:00,27.1,24.0,30.36,SW,231,0.0,0.0,88,0.00,,,0.00,oem by Ross Wheeler,2013-01-08 11:25:00,
2013-01-08 06:30:00,27.1,24.0,30.36,SW,231,0.0,0.0,88,0.00,,,0.00,oem by Ross Wheeler,2013-01-08 11:30:00,
2013-01-08 06:40:00,27.3,25.0,30.36,SW,231,0.0,0.0,89,0.00,,,0.00,oem by Ross Wheeler,2013-01-08 11:40:00,
2013-01-08 06:45:00,27.6,25.0,30.36,SW,226,0.0,0.0,89,0.00,,,0.00,oem by Ross Wheeler,2013-01-08 11:45:00,
2013-01-08 06:55:00,28.0,25.0,30.36,SW,215,0.0,0.0,89,0.00,,,0.00,oem by Ross Wheeler,2013-01-08 11:55:00,
2013-01-08 07:00:00,28.2,25.0,30.36,WSW,241,1.0,0.0,89,0.00,,,0.00,oem by Ross Wheeler,2013-01-08 12:00:00,
2013-01-08 07:10:00,28.3,25.0,30.37,SW,222,0.0,0.0,88,0.00,,,0.00,oem by Ross Wheeler,2013-01-08 12:10:00,
2013-01-08 07:15:00,28.2,25.0,30.37,South,189,0.0,0.0,88,0.00,,,0.00,oem by Ross Wheeler,2013-01-08 12:15:00,
2013-01-08 07:25:00,28.2,25.0,30.37,SSW,212,0.0,0.0,88,0.00,,,0.00,oem by Ross Wheeler,2013-01-08 12:25:00,
2013-01-08 07:30:00,28.2,25.0,30.37,SSW,212,0.0,0.0,88,0.00,,,0.00,oem by Ross Wheeler,2013-01-08 12:30:00,
2013-01-08 07:40:00,28.3,25.0,30.38,WSW,241,4.0,0.0,88,0.00,,,0.00,oem by Ross Wheeler,2013-01-08 12:40:00,
2013-01-08 07:45:00,28.7,26.0,30.38,SW,227,2.0,0.0,88,0.00,,,0.00,oem by Ross Wheeler,2013-01-08 12:45:00,
2013-01-08 07:55:00,29.6,27.0,30.39,SW,233,0.0,0.0,88,0.00,,,0.00,oem by Ross Wheeler,2013-01-08 12:55:00,
2013-01-08 08:00:00,29.9,27.0,30.39,SW,219,2.0,0.0,87,0.00,,,0.00,oem by Ross Wheeler,2013-01-08 13:00:00,
2013-01-08 08:10:00,30.5,27.0,30.40,WSW,239,2.0,0.0,86,0.00,,,0.00,oem by Ross Wheeler,2013-01-08 13:10:00,
2013-01-08 08:15:00,31.0,27.0,30.40,SW,220,4.0,0.0,85,0.00,,,0.00,oem by Ross Wheeler,2013-01-08 13:15:00,
2013-01-08 08:25:00,31.6,27.0,30.40,WSW,237,3.0,0.0,83,0.00,,,0.00,oem by Ross Wheeler,2013-01-08 13:25:00,
2013-01-08 08:30:00,32.0,27.0,30.40,SW,236,2.0,0.0,83,0.00,,,0.00,oem by Ross Wheeler,2013-01-08 13:30:00,
2013-01-08 08:40:00,32.6,28.0,30.40,SSW,212,3.0,0.0,82,0.00,,,0.00,oem by Ross Wheeler,2013-01-08 13:40:00,
2013-01-08 08:45:00,33.0,28.0,30.40,SW,233,0.0,0.0,81,0.00,,,0.00,oem by Ross Wheeler,2013-01-08 13:45:00,
2013-01-08 08:55:00,33.8,28.0,30.41,SW,226,2.0,0.0,80,0.00,,,0.00,oem by Ross Wheeler,2013-01-08 13:55:00,
2013-01-08 09:00:00,33.9,28.0,30.41,SW,234,2.0,0.0,80,0.00,,,0.00,oem by Ross Wheeler,2013-01-08 14:00:00,
2013-01-08 09:10:00,34.2,29.0,30.40,WSW,258,5.0,0.0,80,0.00,,,0.00,oem by Ross Wheeler,2013-01-08 14:10:00,
2013-01-08 09:15:00,34.5,29.0,30.40,SW,226,6.0,0.0,79,0.00,,,0.00,oem by Ross Wheeler,2013-01-08 14:15:00,
2013-01-08 09:25:00,35.1,29.0,30.40,WSW,253,3.0,0.0,78,0.00,,,0.00,oem by Ross Wheeler,2013-01-08 14:25:00,
2013-01-08 09:30:00,35.5,29.0,30.40,SW,215,1.0,0.0,78,0.00,,,0.00,oem by Ross Wheeler,2013-01-08 14:30:00,
2013-01-08 09:40:00,36.1,30.0,30.40,SSW,203,11.0,0.0,77,0.00,,,0.00,oem by Ross Wheeler,2013-01-08 14:40:00,
2013-01-08 09:45:00,36.4,30.0,30.40,SW,229,3.0,0.0,76,0.00,,,0.00,oem by Ross Wheeler,2013-01-08 14:45:00,
2013-01-08 09:55:00,36.8,30.0,30.40,WSW,253,2.0,0.0,75,0.00,,,0.00,oem by Ross Wheeler,2013-01-08 14:55:00,
2013-01-08 10:00:00,37.0,30.0,30.40,WSW,253,3.0,0.0,76,0.00,,,0.00,oem by Ross Wheeler,2013-01-08 15:00:00,
2013-01-08 10:10:00,37.5,30.0,30.40,SW,230,5.0,0.0,74,0.00,,,0.00,oem by Ross Wheeler,2013-01-08 15:10:00,
2013-01-08 10:15:00,38.0,30.0,30.40,SW,220,3.0,0.0,73,0.00,,,0.00,oem by Ross Wheeler,2013-01-08 15:15:00,
2013-01-08 10:25:00,39.1,30.0,30.39,WSW,246,8.0,0.0,71,0.00,,,0.00,oem by Ross Wheeler,2013-01-08 15:25:00,
2013-01-08 10:30:00,39.5,30.0,30.39,SW,226,3.0,0.0,70,0.00,,,0.00,oem by Ross Wheeler,2013-01-08 15:30:00,
2013-01-08 10:40:00,40.4,31.0,30.39,SW,233,6.0,0.0,69,0.00,,,0.00,oem by Ross Wheeler,2013-01-08 15:40:00,
2013-01-08 10:45:00,40.8,31.0,30.39,WNW,282,3.0,0.0,68,0.00,,,0.00,oem by Ross Wheeler,2013-01-08 15:45:00,
2013-01-08 10:55:00,41.5,30.0,30.38,SW,231,6.0,0.0,65,0.00,,,0.00,oem by Ross Wheeler,2013-01-08 15:55:00,
2013-01-08 11:00:00,41.8,31.0,30.38,West,278,0.0,0.0,65,0.00,,,0.00,oem by Ross Wheeler,2013-01-08 16:00:00,
2013-01-08 11:10:00,42.4,31.0,30.37,SW,223,8.0,0.0,64,0.00,,,0.00,oem by Ross Wheeler,2013-01-08 16:10:00,
2013-01-08 11:15:00,42.5,31.0,30.37,WSW,258,4.0,0.0,64,0.00,,,0.00,oem by Ross Wheeler,2013-01-08 16:15:00,
2013-01-08 11:25:00,43.0,31.0,30.36,SW,230,5.0,0.0,64,0.00,,,0.00,oem by Ross Wheeler,2013-01-08 16:25:00,
2013-01-08 11:30:00,43.3,31.0,30.36,WSW,250,2.0,0.0,63,0.00,,,0.00,oem by Ross Wheeler,2013-01-08 16:30:00,
2013-01-08 11:40:00,43.5,32.0,30.34,SW,231,8.0,0.0,63,0.00,,,0.00,oem by Ross Wheeler,2013-01-08 16:40:00,
2013-01-08 11:45:00,43.8,32.0,30.34,SW,231,8.0,0.0,63,0.00,,,0.00,oem by Ross Wheeler,2013-01-08 16:45:00,
2013-01-08 11:55:00,44.3,32.0,30.33,SSW,202,7.0,0.0,62,0.00,,,0.00,oem by Ross Wheeler,2013-01-08 16:55:00,
2013-01-08 12:00:00,44.7,32.0,30.33,West,264,5.0,0.0,62,0.00,,,0.00,oem by Ross Wheeler,2013-01-08 17:00:00,
2013-01-08 12:10:00,45.4,32.0,30.33,WSW,240,14.0,0.0,61,0.00,,,0.00,oem by Ross Wheeler,2013-01-08 17:10:00,
2013-01-08 12:15:00,45.6,32.0,30.33,SSW,207,5.0,0.0,59,0.00,,,0.00,oem by Ross Wheeler,2013-01-08 17:15:00,
2013-01-08 12:25:00,45.9,32.0,30.33,SSW,212,5.0,0.0,59,0.00,,,0.00,oem by Ross Wheeler,2013-01-08 17:25:00,
2013-01-08 12:30:00,46.0,32.0,30.33,WNW,288,5.0,0.0,59,0.00,,,0.00,oem by Ross Wheeler,2013-01-08 17:30:00,
2013-01-08 12:40:00,46.0,32.0,30.33,WSW,247,3.0,0.0,59,0.00,,,0.00,oem by Ross Wheeler,2013-01-08 17:40:00,
2013-01-08 12:45:00,46.2,32.0,30.33,WNW,287,3.0,0.0,59,0.00,,,0.00,oem by Ross Wheeler,2013-01-08 17:45:00,
2013-01-08 12:55:00,46.3,32.0,30.33,West,278,2.0,0.0,59,0.00,,,0.00,oem by Ross Wheeler,2013-01-08 17:55:00,
2013-01-08 13:00:00,46.5,32.0,30.33,SSW,212,6.0,0.0,58,0.00,,,0.00,oem by Ross Wheeler,2013-01-08 18:00:00,
2013-01-08 13:10:00,46.6,32.0,30.32,SW,227,6.0,0.0,58,0.00,,,0.00,oem by Ross Wheeler,2013-01-08 18:10:00,
2013-01-08 13:15:00,46.6,32.0,30.32,SW,231,12.0,0.0,58,0.00,,,0.00,oem by Ross Wheeler,2013-01-08 18:15:00,
2013-01-08 13:25:00,46.8,33.0,30.31,NW,313,3.0,0.0,58,0.00,,,0.00,oem by Ross Wheeler,2013-01-08 18:25:00,
2013-01-08 13:30:00,46.8,33.0,30.31,WNW,287,5.0,0.0,58,0.00,,,0.00,oem by Ross Wheeler,2013-01-08 18:30:00,
2013-01-08 13:40:00,46.8,33.0,30.31,WSW,246,1.0,0.0,58,0.00,,,0.00,oem by Ross Wheeler,2013-01-08 18:40:00,
2013-01-08 13:45:00,46.8,33.0,30.31,WNW,296,7.0,0.0,58,0.00,,,0.00,oem by Ross Wheeler,2013-01-08 18:45:00,
2013-01-08 13:55:00,47.1,33.0,30.32,West,265,3.0,0.0,58,0.00,,,0.00,oem by Ross Wheeler,2013-01-08 18:55:00,
2013-01-08 14:00:00,47.4,33.0,30.32,WSW,246,0.0,0.0,57,0.00,,,0.00,oem by Ross Wheeler,2013-01-08 19:00:00,
2013-01-08 14:10:00,47.7,32.0,30.32,WNW,301,5.0,0.0,56,0.00,,,0.00,oem by Ross Wheeler,2013-01-08 19:10:00,
2013-01-08 14:15:00,47.7,32.0,30.32,WNW,285,3.0,0.0,56,0.00,,,0.00,oem by Ross Wheeler,2013-01-08 19:15:00,
2013-01-08 14:25:00,48.0,33.0,30.32,SW,215,6.0,0.0,57,0.00,,,0.00,oem by Ross Wheeler,2013-01-08 19:25:00,
2013-01-08 14:30:00,48.0,33.0,30.32,WSW,243,1.0,0.0,56,0.00,,,0.00,oem by Ross Wheeler,2013-01-08 19:30:00,
2013-01-08 14:40:00,48.3,33.0,30.32,WSW,240,3.0,0.0,56,0.00,,,0.00,oem by Ross Wheeler,2013-01-08 19:40:00,
2013-01-08 14:45:00,48.4,33.0,30.32,SW,217,2.0,0.0,55,0.00,,,0.00,oem by Ross Wheeler,2013-01-08 19:45:00,
2013-01-08 14:55:00,48.4,32.0,30.33,West,261,3.0,0.0,54,0.00,,,0.00,oem by Ross Wheeler,2013-01-08 19:55:00,
2013-01-08 15:00:00,48.4,32.0,30.33,West,281,4.0,0.0,54,0.00,,,0.00,oem by Ross Wheeler,2013-01-08 20:00:00,
2013-01-08 15:10:00,48.3,33.0,30.32,West,274,2.0,0.0,55,0.00,,,0.00,oem by Ross Wheeler,2013-01-08 20:10:00,
2013-01-08 15:15:00,48.3,33.0,30.32,SW,220,1.0,0.0,55,0.00,,,0.00,oem by Ross Wheeler,2013-01-08 20:15:00,
2013-01-08 15:25:00,48.3,32.0,30.32,WSW,255,0.0,0.0,54,0.00,,,0.00,oem by Ross Wheeler,2013-01-08 20:25:00,
2013-01-08 15:30:00,48.3,33.0,30.32,West,263,0.0,0.0,55,0.00,,,0.00,oem by Ross Wheeler,2013-01-08 20:30:00,
2013-01-08 15:40:00,48.0,33.0,30.32,WSW,243,8.0,0.0,57,0.00,,,0.00,oem by Ross Wheeler,2013-01-08 20:40:00,
2013-01-08 15:45:00,47.8,33.0,30.32,SW,216,2.0,0.0,57,0.00,,,0.00,oem by Ross Wheeler,2013-01-08 20:45:00,
2013-01-08 15:55:00,47.4,33.0,30.32,SSW,205,0.0,0.0,58,0.00,,,0.00,oem by Ross Wheeler,2013-01-08 20:55:00,
2013-01-08 16:00:00,47.1,33.0,30.32,SW,234,5.0,0.0,58,0.00,,,0.00,oem by Ross Wheeler,2013-01-08 21:00:00,
2013-01-08 16:10:00,46.8,33.0,30.33,SW,233,7.0,0.0,59,0.00,,,0.00,oem by Ross Wheeler,2013-01-08 21:10:00,
2013-01-08 16:15:00,46.6,33.0,30.33,WSW,241,7.0,0.0,59,0.00,,,0.00,oem by Ross Wheeler,2013-01-08 21:15:00,
2013-01-08 16:25:00,46.2,33.0,30.33,SW,234,3.0,0.0,60,0.00,,,0.00,oem by Ross Wheeler,2013-01-08 21:25:00,
2013-01-08 16:30:00,45.9,33.0,30.33,SW,219,3.0,0.0,61,0.00,,,0.00,oem by Ross Wheeler,2013-01-08 21:30:00,
2013-01-08 16:40:00,45.3,33.0,30.33,SSW,203,2.0,0.0,62,0.00,,,0.00,oem by Ross Wheeler,2013-01-08 21:40:00,
2013-01-08 16:45:00,45.0,33.0,30.33,SSW,203,2.0,0.0,62,0.00,,,0.00,oem by Ross Wheeler,2013-01-08 21:45:00,
2013-01-08 16:55:00,44.7,32.0,30.32,WSW,241,2.0,0.0,62,0.00,,,0.00,oem by Ross Wheeler,2013-01-08 21:55:00,
2013-01-08 17:00:00,44.4,32.0,30.32,SW,227,1.0,0.0,63,0.00,,,0.00,oem by Ross Wheeler,2013-01-08 22:00:00,
2013-01-08 17:10:00,44.0,32.0,30.32,SW,217,0.0,0.0,64,0.00,,,0.00,oem by Ross Wheeler,2013-01-08 22:10:00,
2013-01-08 17:15:00,43.7,33.0,30.32,SW,222,2.0,0.0,65,0.00,,,0.00,oem by Ross Wheeler,2013-01-08 22:15:00,
2013-01-08 17:25:00,43.3,32.0,30.32,SW,236,1.0,0.0,65,0.00,,,0.00,oem by Ross Wheeler,2013-01-08 22:25:00,
2013-01-08 17:30:00,43.0,32.0,30.32,SW,236,2.0,0.0,66,0.00,,,0.00,oem by Ross Wheeler,2013-01-08 22:30:00,
2013-01-08 17:40:00,42.4,32.0,30.33,SW,226,0.0,0.0,68,0.00,,,0.00,oem by Ross Wheeler,2013-01-08 22:40:00,
2013-01-08 17:45:00,42.1,33.0,30.33,SW,233,1.0,0.0,69,0.00,,,0.00,oem by Ross Wheeler,2013-01-08 22:45:00,
2013-01-08 17:55:00,41.5,32.0,30.33,SW,233,1.0,0.0,69,0.00,,,0.00,oem by Ross Wheeler,2013-01-08 22:55:00,
2013-01-08 18:00:00,41.4,32.0,30.33,SW,233,0.0,0.0,70,0.00,,,0.00,oem by Ross Wheeler,2013-01-08 23:00:00,
2013-01-08 18:10:00,41.0,32.0,30.34,SW,215,1.0,0.0,71,0.00,,,0.00,oem by Ross Wheeler,2013-01-08 23:10:00,
2013-01-08 18:15:00,40.7,32.0,30.34,SW,215,1.0,0.0,72,0.00,,,0.00,oem by Ross Wheeler,2013-01-08 23:15:00,
2013-01-08 18:25:00,40.3,32.0,30.34,WSW,251,0.0,0.0,73,0.00,,,0.00,oem by Ross Wheeler,2013-01-08 23:25:00,
2013-01-08 18:30:00,40.1,32.0,30.34,SW,224,1.0,0.0,74,0.00,,,0.00,oem by Ross Wheeler,2013-01-08 23:30:00,
2013-01-08 18:40:00,40.0,33.0,30.35,WSW,240,3.0,0.0,75,0.00,,,0.00,oem by Ross Wheeler,2013-01-08 23:40:00,
2013-01-08 18:45:00,40.1,32.0,30.35,WSW,254,3.0,0.0,74,0.00,,,0.00,oem by Ross Wheeler,2013-01-08 23:45:00,
2013-01-08 18:55:00,40.1,32.0,30.35,WSW,243,2.0,0.0,74,0.00,,,0.00,oem by Ross Wheeler,2013-01-08 23:55:00,
2013-01-08 19:00:00,40.1,32.0,30.35,WSW,243,1.0,0.0,74,0.00,,,0.00,oem by Ross Wheeler,2013-01-09 00:00:00,
2013-01-08 19:10:00,40.0,32.0,30.35,SW,229,5.0,0.0,74,0.00,,,0.00,oem by Ross Wheeler,2013-01-09 00:10:00,
2013-01-08 19:15:00,40.0,32.0,30.35,SW,231,3.0,0.0,74,0.00,,,0.00,oem by Ross Wheeler,2013-01-09 00:15:00,
2013-01-08 19:25:00,39.8,32.0,30.35,WSW,240,1.0,0.0,75,0.00,,,0.00,oem by Ross Wheeler,2013-01-09 00:25:00,
2013-01-08 19:30:00,39.7,32.0,30.35,WSW,240,1.0,0.0,75,0.00,,,0.00,oem by Ross Wheeler,2013-01-09 00:30:00,
2013-01-08 19:40:00,39.5,33.0,30.35,WSW,240,0.0,0.0,76,0.00,,,0.00,oem by Ross Wheeler,2013-01-09 00:40:00,
2013-01-08 19:45:00,39.4,32.0,30.35,WSW,240,0.0,0.0,76,0.00,,,0.00,oem by Ross Wheeler,2013-01-09 00:45:00,
2013-01-08 19:55:00,38.8,32.0,30.35,WSW,240,0.0,0.0,77,0.00,,,0.00,oem by Ross Wheeler,2013-01-09 00:55:00,
2013-01-08 20:00:00,38.5,32.0,30.35,WSW,240,1.0,0.0,77,0.00,,,0.00,oem by Ross Wheeler,2013-01-09 01:00:00,
2013-01-08 20:10:00,38.1,32.0,30.36,WSW,240,0.0,0.0,78,0.00,,,0.00,oem by Ross Wheeler,2013-01-09 01:10:00,
2013-01-08 20:15:00,38.0,32.0,30.36,WSW,240,0.0,0.0,78,0.00,,,0.00,oem by Ross Wheeler,2013-01-09 01:15:00,
2013-01-08 20:25:00,37.5,32.0,30.36,WSW,240,3.0,0.0,79,0.00,,,0.00,oem by Ross Wheeler,2013-01-09 01:25:00,
2013-01-08 20:30:00,37.5,32.0,30.36,WSW,240,1.0,0.0,79,0.00,,,0.00,oem by Ross Wheeler,2013-01-09 01:30:00,
2013-01-08 20:40:00,37.5,32.0,30.36,WSW,240,0.0,0.0,80,0.00,,,0.00,oem by Ross Wheeler,2013-01-09 01:40:00,
2013-01-08 20:45:00,37.5,32.0,30.36,WSW,240,0.0,0.0,80,0.00,,,0.00,oem by Ross Wheeler,2013-01-09 01:45:00,
2013-01-08 20:55:00,37.0,31.0,30.35,WSW,240,0.0,0.0,79,0.00,,,0.00,oem by Ross Wheeler,2013-01-09 01:55:00,
2013-01-08 21:00:00,36.7,31.0,30.35,WSW,240,0.0,0.0,80,0.00,,,0.00,oem by Ross Wheeler,2013-01-09 02:00:00,
2013-01-08 21:10:00,36.0,30.0,30.34,WSW,240,0.0,0.0,80,0.00,,,0.00,oem by Ross Wheeler,2013-01-09 02:10:00,
2013-01-08 21:15:00,35.7,30.0,30.34,WSW,240,0.0,0.0,80,0.00,,,0.00,oem by Ross Wheeler,2013-01-09 02:15:00,
2013-01-08 21:25:00,35.1,30.0,30.35,WSW,240,0.0,0.0,81,0.00,,,0.00,oem by Ross Wheeler,2013-01-09 02:25:00,
2013-01-08 21:30:00,35.0,30.0,30.35,WSW,240,0.0,0.0,83,0.00,,,0.00,oem by Ross Wheeler,2013-01-09 02:30:00,
2013-01-08 21:40:00,34.5,30.0,30.35,WSW,240,0.0,0.0,82,0.00,,,0.00,oem by Ross Wheeler,2013-01-09 02:40:00,
2013-01-08 21:45:00,34.2,30.0,30.35,WSW,240,0.0,0.0,83,0.00,,,0.00,oem by Ross Wheeler,2013-01-09 02:45:00,
2013-01-08 21:55:00,33.8,29.0,30.35,WSW,240,0.0,0.0,83,0.00,,,0.00,oem by Ross Wheeler,2013-01-09 02:55:00,
2013-01-08 22:00:00,33.3,29.0,30.35,WSW,240,0.0,0.0,83,0.00,,,0.00,oem by Ross Wheeler,2013-01-09 03:00:00,
2013-01-08 22:20:00,32.3,28.0,30.35,WSW,240,0.0,0.0,84,0.00,,,0.00,oem by Ross Wheeler,2013-01-09 03:20:00,
2013-01-08 22:25:00,32.1,28.0,30.35,WSW,240,0.0,0.0,85,0.00,,,0.00,oem by Ross Wheeler,2013-01-09 03:25:00,
2013-01-08 22:30:00,32.0,28.0,30.35,WSW,240,0.0,0.0,85,0.00,,,0.00,oem by Ross Wheeler,2013-01-09 03:30:00,
2013-01-08 22:40:00,31.6,28.0,30.36,WSW,240,0.0,0.0,86,0.00,,,0.00,oem by Ross Wheeler,2013-01-09 03:40:00,
2013-01-08 22:45:00,31.4,28.0,30.36,WSW,240,0.0,0.0,86,0.00,,,0.00,oem by Ross Wheeler,2013-01-09 03:45:00,
2013-01-08 22:55:00,31.1,27.0,30.37,WSW,240,0.0,0.0,86,0.00,,,0.00,oem by Ross Wheeler,2013-01-09 03:55:00,
2013-01-08 23:00:00,31.0,27.0,30.37,WSW,240,0.0,0.0,86,0.00,,,0.00,oem by Ross Wheeler,2013-01-09 04:00:00,
2013-01-08 23:10:00,30.5,27.0,30.37,WSW,240,0.0,0.0,87,0.00,,,0.00,oem by Ross Wheeler,2013-01-09 04:10:00,
2013-01-08 23:15:00,30.4,27.0,30.37,WSW,240,0.0,0.0,87,0.00,,,0.00,oem by Ross Wheeler,2013-01-09 04:15:00,
2013-01-08 23:25:00,30.5,28.0,30.36,WSW,240,0.0,0.0,89,0.00,,,0.00,oem by Ross Wheeler,2013-01-09 04:25:00,
2013-01-08 23:30:00,30.8,28.0,30.36,WSW,240,0.0,0.0,89,0.00,,,0.00,oem by Ross Wheeler,2013-01-09 04:30:00,
2013-01-08 23:40:00,30.8,28.0,30.37,WSW,240,0.0,0.0,89,0.00,,,0.00,oem by Ross Wheeler,2013-01-09 04:40:00,
2013-01-08 23:45:00,30.8,28.0,30.37,WSW,240,0.0,0.0,89,0.00,,,0.00,oem by Ross Wheeler,2013-01-09 04:45:00,
2013-01-08 23:55:00,30.7,28.0,30.36,WSW,240,0.0,0.0,88,0.00,,,0.00,oem by Ross Wheeler,2013-01-09 04:55:00,